User: anonymous   Login
Location: Bothwell
(42.3833°S, 147.0000°E)
Time: 05:35:27
(UTC+10:00)
Language:

First-Move - Orbit

View from above orbital plane
View from above orbital plane
View from above satellite
View from above satellite

Ground track
Ground track

The orbit data is extracted from the following two-line orbital elements,

1 39439U 13066Z   22267.49221846  .00004552  00000-0  52346-3 0  9998
2 39439  97.6473 237.2433 0063963  74.5931 286.2338 14.84770954476745
Epoch (UTC): 24 September 2022 11:48:47
Eccentricity: 0.0063963
inclination: 97.6473°
perigee height: 569 km
apogee height: 659 km
right ascension of ascending node: 237.2433°
argument of perigee: 74.5931°
revolutions per day: 14.84770954
mean anomaly at epoch: 286.2338°
orbit number at epoch: 47674

The dashed part of the orbit path shows where the satellite is in the earth's shadow,  

DLR